This demonstration page uses our WeatherBlox Daily Observations layout. Learn more.

Left ArrowRight Arrow

36.17497, -115.13722

Hourly Observations for December 18, 2018

Temp ( °F °C ) Dew Point ( °F °C ) Humidity (%) Winds ( mph kmh ) Pressure ( in mb ) Visibility ( mi km ) Precip ( " mm )
12:53 am 00:53 Clear 43 6.1 25 -3.9 49 49 W 6 9 30.23 1024 10 16.0934 0 0
1:53 am 01:53 Clear 44 6.7 26 -3.3 49 49 NW 7 11 30.23 1024 10 16.0934 0 0
2:53 am 02:53 Clear 43 6.1 26 -3.3 51 51 NW 6 9 30.22 1023 10 16.0934 0 0
3:53 am 03:53 Clear 40 4.4 26 -3.3 58 58 NW 6 9 30.23 1024 10 16.0934 0 0
4:53 am 04:53 Clear 42 5.6 26 -3.3 53 53 WNW 7 11 30.24 1024 10 16.0934 0 0
5:53 am 05:53 Clear 44 6.7 27 -2.8 51 51 WNW 6 9 30.25 1024 10 16.0934 0 0
6:53 am 06:53 Sunny 45 7.2 26 -3.3 48 48 N 3 6 30.27 1025 10 16.0934 0 0
7:53 am 07:53 Sunny 44 6.7 28 -2.2 53 53 WNW 6 9 30.29 1026 10 16.0934 0 0
8:53 am 08:53 Sunny 50 10 27 -2.8 41 41 N 3 6 30.3 1026 10 16.0934 0 0
9:53 am 09:53 Sunny 53 11.7 27 -2.8 37 37 Calm 30.3 1026 10 16.0934 0 0
10:53 am 10:53 Sunny 56 13.3 27 -2.8 33 33 E 5 7 30.27 1025 10 16.0934 0 0
11:53 am 11:53 Sunny 57 13.9 28 -2.2 33 33 Calm 30.24 1024 10 16.0934 0 0
12:53 pm 12:53 Sunny 58 14.4 27 -2.8 31 31 SE 5 7 30.21 1023 10 16.0934 0 0
1:53 pm 13:53 Sunny 59 15 28 -2.2 31 31 SE 6 9 30.19 1022 10 16.0934 0 0
2:53 pm 14:53 Sunny 59 15 27 -2.8 29 29 Calm 30.19 1023 10 16.0934 0 0
3:53 pm 15:53 Sunny 58 14.4 27 -2.8 31 31 E 5 7 30.21 1023 10 16.0934 0 0
4:53 pm 16:53 Clear 57 13.9 28 -2.2 33 33 Calm 30.21 1023 10 16.0934 0 0
5:53 pm 17:53 Clear 53 11.7 29 -1.7 40 40 WNW 5 7 30.23 1024 10 16.0934 0 0
6:53 pm 18:53 Clear 52 11.1 30 -1.1 43 43 W 5 7 30.24 1024 10 16.0934 0 0
7:53 pm 19:53 Clear 49 9.4 30 -1.1 48 48 NNW 3 6 30.26 1025 10 16.0934 0 0
8:53 pm 20:53 Clear 48 8.9 30 -1.1 50 50 NW 6 9 30.27 1025 10 16.0934 0 0
9:53 pm 21:53 Clear 44 6.7 29 -1.7 55 55 NW 6 9 30.27 1025 10 16.0934 0 0
10:53 pm 22:53 Clear 44 6.7 30 -1.1 58 58 NW 7 11 30.26 1025 10 16.0934 0 0
11:53 pm 23:53 Clear 45 7.2 29 -1.7 54 54 W 3 6 30.25 1024 10 16.0934 0 0

Powered by AerisWeather